Content
SEND FEEDBACK

Daily
Averages
Monthly
Summary
Canada

RICHMOND NATURE PARK, BRITISH COLUMBIA


Home > North America > Canada > British Columbia
Elevation: 10 feet     Latitude: 49 10N     Longitude: 123 05W

WEATHER
 
SELECT A DAY
Number of Records: 194,204;   Date Range: 1/1/95 - 7/11/14
 
SHARE

PRINT THIS DATA

[ ← Previous Day ]
WEATHER ALMANAC - JANUARY 31, 2013
[ Next Day → ]
[ °C ]   °F
Weather ElementAverageHighLow
Temperature44.8 °F50 °F (3:00 pm)42.8 °F (12:46 am)
Dewpoint23.1 °F46.4 °F (3:00 pm) (7:00 pm)
Humidity90.7 %93 % (1:00 am)80 % (4:00 pm)
Wind Speed6.1 mph11.5 mph (7:39 am)
Weather ElementAverage
Visibility5.2 mi
Wind DirectionWSW (247.4 °)

Weather ElementTotal
Precipitation---
Heating Degree Days18.6 (Base 65)
Averaged from 48 records on January 31, 2013
WEATHER CONDITIONS BREAKOUT
WIND DIRECTION BREAKOUT
WEATHER BY HOUR - JANUARY 31, 2013
[ °C ]   °F
Local TimeTemperatureDewpointHumidityBarometerVisibilityWind DirectionWind SpeedGust SpeedPrecipitationEventsConditions
12:46 AM42.8 °F0.0 °F0.0 mi3.5 (2013°)Overcast290
1:00 AM42.8 °F41.0 °F93 %30.38 in0.5 miWNW (300°)4.6 mphFogFog
1:19 AM42.8 °F0.0 °F0.0 mi3.5 (2013°)Light Drizzle330
1:38 AM42.8 °F0.0 °F0.0 mi3.5 (2013°)Light Drizzle30
2:00 AM42.8 °F41.0 °F93 %30.37 in1.0 miCalmLight Drizzle
2:12 AM42.8 °F0.0 °F2.2 miNE (50°)4.6 mphLight Drizzle
2:19 AM42.8 °F0.0 °F6.0 miCalmLight Drizzle
3:00 AM42.8 °F41.0 °F93 %30.36 in6.0 miSSE (150°)3.5 mphLight Drizzle
3:19 AM42.8 °F0.0 °F12.0 miCalmMostly Cloudy
4:00 AM43.0 °F41.0 °F90 %30.36 in6.0 miCalmRainLight Drizzle
4:00 AM42.8 °F41.0 °F93 %30.36 in6.0 miCalmOvercast
5:00 AM42.8 °F41.0 °F93 %30.35 in4.0 miESE (110°)5.8 mphOvercast
5:41 AM42.8 °F0.0 °F3.0 miEast (100°)5.8 mphOvercast
6:00 AM42.8 °F41.0 °F93 %30.35 in2.0 miEast (100°)5.8 mphOvercast
6:40 AM42.8 °F0.0 °F2.0 miEast (100°)6.9 mphOvercast
7:00 AM42.8 °F41.0 °F93 %30.33 in2.0 miEast (100°)8.1 mphOvercast
7:39 AM42.8 °F0.0 °F4.0 miEast (90°)11.5 mphOvercast
8:00 AM42.8 °F41.0 °F93 %30.33 in4.0 miEast (80°)10.4 mphOvercast
8:07 AM42.8 °F0.0 °F4.0 miEast (80°)10.4 mphRainLight Rain
9:00 AM44.6 °F41.0 °F87 %30.33 in3.0 miESE (110°)10.4 mphRainLight Rain
9:24 AM44.6 °F0.0 °F4.0 miESE (110°)11.5 mphOvercast
9:35 AM44.6 °F0.0 °F4.0 miESE (110°)11.5 mphRainLight Rain
10:00 AM44.6 °F42.8 °F93 %30.33 in3.0 miEast (100°)8.1 mphRainLight Rain
10:53 AM46.4 °F0.0 °F3.0 miESE (120°)8.1 mphOvercast
11:00 AM46.4 °F44.6 °F93 %30.32 in3.0 miESE (120°)8.1 mphOvercast
11:19 AM46.4 °F0.0 °F3.0 miSE (130°)9.2 mphOvercast
12:00 PM46.4 °F44.6 °F93 %30.31 in4.0 miSE (130°)6.9 mphOvercast
12:24 PM46.4 °F0.0 °F3.0 miESE (110°)6.9 mphRainLight Rain Showers
1:00 PM46.4 °F44.6 °F93 %30.29 in4.0 miEast (100°)9.2 mphRainLight Rain Showers
1:16 PM48.2 °F0.0 °F4.0 miEast (100°)6.9 mphOvercast
2:00 PM48.2 °F44.6 °F87 %30.28 in8.0 miESE (110°)5.8 mphOvercast
3:00 PM50.0 °F46.4 °F87 %30.27 in12.0 miSSE (160°)9.2 mphMostly Cloudy
4:00 PM49.0 °F45.0 °F80 %30.28 in12.0 miEast (80°)3.5 mphPartly Cloudy
4:00 PM48.2 °F44.6 °F87 %30.28 in12.0 miEast (80°)4.6 mphMostly Cloudy
5:00 PM46.4 °F44.6 °F93 %30.28 in10.0 miEast (90°)6.9 mphMostly Cloudy
6:00 PM46.4 °F42.8 °F87 %30.29 in10.0 miEast (90°)5.8 mphOvercast
6:08 PM46.4 °F0.0 °F6.0 miEast (100°)5.8 mphRainLight Rain
6:14 PM46.4 °F0.0 °F6.0 miEast (100°)5.8 mphRainRain Showers
6:23 PM46.4 °F0.0 °F6.0 miESE (110°)8.1 mphRainLight Rain Showers
6:31 PM46.4 °F0.0 °F8.0 miEast (100°)5.8 mphMostly Cloudy
7:00 PM44.6 °F42.8 °F93 %30.28 in8.0 miENE (60°)5.8 mphMostly Cloudy
8:00 PM46.4 °F42.8 °F87 %30.28 in8.0 miEast (90°)4.6 mphMostly Cloudy
9:00 PM46.4 °F42.8 °F87 %30.30 in8.0 miNorth (360°)5.8 mphMostly Cloudy
10:00 PM44.0 °F42.0 °F90 %30.31 in7.0 miNNW (330°)3.5 mphPartly Cloudy
10:00 PM44.6 °F42.8 °F93 %30.31 in8.0 miNW (310°)3.5 mphOvercast
10:31 PM44.6 °F0.0 °F6.0 miNW (320°)5.8 mphOvercast
11:00 PM44.6 °F42.8 °F93 %30.32 in6.0 miNW (320°)5.8 mphOvercast
11:37 PM44.6 °F0.0 °F6.0 miWest (280°)5.8 mphOvercast
Hourly data recorded from CYVR, located miles away from Richmond Nature Park, British Columbia







STORIES FROM OUR PARTNERS